DLH20M EDDF-LFRS

Flight info

Callsign DLH20M
Flight time N/A
Altitude 35000
Route SOBRA2L/18 SOBRA Y180 DIK UN857 TOLVU DCT RAPOR DCT ESTOC UT300 PON UN872 DIDAK A5 VALAX
Aircraft A319/M-SDE3FGHIRWY/LB1

Departure

Time 2026-05-07 18:40
Airport Frankfurt Main Airport (EDDF)

Arrival

Time N/A
Airport Nantes Atlantique Airport (LFRS)
Time Latitude Longitude Altitude Speed Heading
2026-05-07 18:08 50.04878 8.58971 365 ft 0 kts 340°
2026-05-07 18:22 50.04861 8.58981 365 ft 4 kts 340°
2026-05-07 18:23 50.04836 8.58995 368 ft 4 kts 340°
2026-05-07 18:23 50.04811 8.59009 372 ft 4 kts 340°
2026-05-07 18:23 50.04794 8.59019 368 ft 0 kts 340°
2026-05-07 18:26 50.04797 8.59017 368 ft 1 kts 340°
2026-05-07 18:27 50.04811 8.59030 369 ft 4 kts 52°
2026-05-07 18:27 50.04809 8.59084 368 ft 6 kts 97°
2026-05-07 18:27 50.04820 8.59156 370 ft 8 kts 69°
2026-05-07 18:27 50.04844 8.59256 368 ft 11 kts 69°
2026-05-07 18:28 50.04871 8.59377 369 ft 13 kts 78°
2026-05-07 18:28 50.04859 8.59455 375 ft 7 kts 124°
2026-05-07 18:28 50.04841 8.59481 370 ft 0 kts 139°
2026-05-07 18:28 50.04834 8.59490 370 ft 3 kts 139°
2026-05-07 18:29 50.04812 8.59519 370 ft 6 kts 140°
2026-05-07 18:29 50.04777 8.59564 372 ft 7 kts 143°
2026-05-07 18:29 50.04738 8.59592 374 ft 6 kts 162°
2026-05-07 18:29 50.04682 8.59611 374 ft 10 kts 171°
2026-05-07 18:30 50.04597 8.59620 375 ft 14 kts 178°
2026-05-07 18:30 50.04502 8.59626 376 ft 14 kts 178°
2026-05-07 18:30 50.04398 8.59631 376 ft 17 kts 178°
2026-05-07 18:30 50.04277 8.59638 376 ft 18 kts 178°
2026-05-07 18:31 50.04150 8.59606 375 ft 19 kts 199°
2026-05-07 18:31 50.04030 8.59535 375 ft 19 kts 206°
2026-05-07 18:31 50.03923 8.59404 370 ft 21 kts 229°
2026-05-07 18:31 50.03850 8.59199 370 ft 22 kts 250°
2026-05-07 18:32 50.03799 8.58984 366 ft 21 kts 250°
2026-05-07 18:32 50.03751 8.58783 367 ft 20 kts 250°
2026-05-07 18:32 50.03702 8.58581 360 ft 21 kts 249°
2026-05-07 18:32 50.03651 8.58369 359 ft 21 kts 249°
2026-05-07 18:33 50.03600 8.58154 362 ft 21 kts 250°
2026-05-07 18:33 50.03549 8.57938 362 ft 22 kts 249°
2026-05-07 18:33 50.03495 8.57714 356 ft 23 kts 250°
2026-05-07 18:33 50.03438 8.57474 357 ft 24 kts 250°
2026-05-07 18:34 50.03381 8.57232 355 ft 25 kts 250°
2026-05-07 18:34 50.03320 8.56979 355 ft 25 kts 250°
2026-05-07 18:34 50.03259 8.56722 353 ft 26 kts 250°
2026-05-07 18:34 50.03205 8.56494 348 ft 21 kts 250°
2026-05-07 18:35 50.03153 8.56277 353 ft 22 kts 250°
2026-05-07 18:35 50.03099 8.56048 351 ft 23 kts 250°
2026-05-07 18:35 50.03042 8.55808 350 ft 24 kts 250°
2026-05-07 18:35 50.02984 8.55567 346 ft 24 kts 249°
2026-05-07 18:36 50.02925 8.55323 350 ft 24 kts 249°
2026-05-07 18:36 50.02866 8.55077 347 ft 25 kts 249°
2026-05-07 18:36 50.02806 8.54826 344 ft 25 kts 249°
2026-05-07 18:36 50.02743 8.54567 341 ft 26 kts 249°
2026-05-07 18:37 50.02680 8.54302 339 ft 26 kts 249°
2026-05-07 18:37 50.02617 8.54024 336 ft 28 kts 251°
2026-05-07 18:37 50.02556 8.53744 336 ft 27 kts 251°
2026-05-07 18:37 50.02504 8.53517 335 ft 21 kts 250°
2026-05-07 18:38 50.02452 8.53298 333 ft 22 kts 249°
2026-05-07 18:38 50.02402 8.53091 335 ft 19 kts 249°
2026-05-07 18:38 50.02358 8.52911 334 ft 17 kts 249°
2026-05-07 18:38 50.02319 8.52750 333 ft 16 kts 249°
2026-05-07 18:39 50.02291 8.52637 332 ft 7 kts 248°
2026-05-07 18:39 50.02252 8.52604 335 ft 7 kts 179°
2026-05-07 18:39 50.02199 8.52606 333 ft 9 kts 179°
2026-05-07 18:39 50.01958 8.52608 331 ft 74 kts 179°
2026-05-07 18:40 50.01186 8.52617 333 ft 144 kts 179°
2026-05-07 18:40 50.00097 8.52639 789 ft 156 kts 176°
2026-05-07 18:40 49.99048 8.52690 1458 ft 157 kts 176°
2026-05-07 18:40 49.97921 8.52755 2012 ft 170 kts 176°
2026-05-07 18:41 49.96658 8.52845 2422 ft 193 kts 176°
2026-05-07 18:41 49.95232 8.52951 2821 ft 216 kts 177°
2026-05-07 18:41 49.93666 8.53064 3363 ft 234 kts 177°
2026-05-07 18:41 49.92011 8.53180 3895 ft 240 kts 178°
2026-05-07 18:42 49.90343 8.53294 3998 ft 239 kts 178°
2026-05-07 18:42 49.88686 8.53404 4014 ft 238 kts 178°
2026-05-07 18:42 49.87037 8.53229 4018 ft 239 kts 193°
2026-05-07 18:42 49.85353 8.52378 4070 ft 266 kts 201°
2026-05-07 18:43 49.83606 8.51387 5040 ft 270 kts 201°
2026-05-07 18:43 49.81834 8.50382 6104 ft 272 kts 201°
2026-05-07 18:43 49.80048 8.49369 7120 ft 274 kts 201°
2026-05-07 18:43 49.78285 8.48207 8071 ft 277 kts 213°
2026-05-07 18:44 49.76889 8.46202 8984 ft 279 kts 236°
2026-05-07 18:44 49.76105 8.43472 9932 ft 282 kts 259°
2026-05-07 18:44 49.76071 8.40400 10532 ft 297 kts 281°
2026-05-07 18:44 49.76585 8.37185 10926 ft 317 kts 284°
2026-05-07 18:45 49.77145 8.33844 11655 ft 325 kts 284°
2026-05-07 18:45 49.77708 8.30459 12465 ft 329 kts 284°
2026-05-07 18:45 49.78275 8.26997 12914 ft 332 kts 284°
2026-05-07 18:45 49.78835 8.23528 13043 ft 332 kts 283°
2026-05-07 18:46 49.79390 8.20063 13064 ft 332 kts 283°
2026-05-07 18:46 49.79940 8.16597 13065 ft 332 kts 283°
2026-05-07 18:46 49.80488 8.13126 13068 ft 332 kts 283°
2026-05-07 18:46 49.81034 8.09659 13068 ft 332 kts 283°
2026-05-07 18:47 49.81583 8.06188 13066 ft 332 kts 283°
2026-05-07 18:47 49.82133 8.02724 13068 ft 332 kts 283°
2026-05-07 18:47 49.82684 7.99253 13068 ft 332 kts 283°
2026-05-07 18:47 49.83231 7.95779 13070 ft 332 kts 283°
2026-05-07 18:48 49.83777 7.92306 13070 ft 332 kts 283°
2026-05-07 18:48 49.84322 7.88835 13071 ft 332 kts 283°
2026-05-07 18:48 49.84865 7.85358 13070 ft 332 kts 283°
2026-05-07 18:48 49.85401 7.81923 13070 ft 332 kts 283°
2026-05-07 18:49 49.85952 7.78393 13329 ft 336 kts 283°
2026-05-07 18:49 49.86449 7.74875 14196 ft 337 kts 281°
2026-05-07 18:49 49.86862 7.71294 14944 ft 340 kts 279°
2026-05-07 18:49 49.87235 7.67651 15681 ft 343 kts 278°
2026-05-07 18:50 49.87594 7.63971 16417 ft 347 kts 278°
2026-05-07 18:50 49.87955 7.60255 17155 ft 350 kts 278°
2026-05-07 18:50 49.88324 7.56503 17887 ft 353 kts 278°
2026-05-07 18:50 49.88699 7.52772 18565 ft 356 kts 278°
2026-05-07 18:51 49.89087 7.48958 19198 ft 359 kts 278°
2026-05-07 18:51 49.89482 7.45113 19834 ft 362 kts 278°
2026-05-07 18:51 49.89880 7.41245 20470 ft 365 kts 278°
2026-05-07 18:51 49.90283 7.37336 21105 ft 368 kts 278°
2026-05-07 18:52 49.90687 7.33401 21733 ft 371 kts 278°
2026-05-07 18:52 49.91094 7.29425 22356 ft 374 kts 278°
2026-05-07 18:52 49.91503 7.25420 22974 ft 378 kts 278°
2026-05-07 18:52 49.91914 7.21379 23580 ft 381 kts 277°
2026-05-07 18:53 49.92326 7.17299 24014 ft 383 kts 277°
2026-05-07 18:53 49.92736 7.13192 24490 ft 386 kts 277°
2026-05-07 18:53 49.93147 7.09057 24984 ft 389 kts 278°
2026-05-07 18:53 49.93561 7.04893 25471 ft 392 kts 278°
2026-05-07 18:54 49.93979 7.00702 25944 ft 394 kts 278°
2026-05-07 18:54 49.94394 6.96533 26394 ft 397 kts 278°
2026-05-07 18:54 49.94815 6.92274 26854 ft 400 kts 278°
2026-05-07 18:54 49.95234 6.87992 27304 ft 402 kts 278°
2026-05-07 18:55 49.95653 6.83674 27754 ft 405 kts 278°
2026-05-07 18:55 49.96073 6.79335 28219 ft 408 kts 278°
2026-05-07 18:55 49.96495 6.74967 28672 ft 410 kts 278°
2026-05-07 18:55 49.96917 6.70572 29108 ft 413 kts 277°
2026-05-07 18:56 49.97079 6.67636 29382 ft 414 kts 269°
2026-05-07 18:56 49.96684 6.63195 29802 ft 417 kts 256°
2026-05-07 18:56 49.95975 6.58812 30196 ft 420 kts 256°
2026-05-07 18:56 49.95243 6.54423 30564 ft 422 kts 256°
2026-05-07 18:57 49.94492 6.50007 30916 ft 424 kts 256°
2026-05-07 18:57 49.93735 6.45567 31253 ft 426 kts 256°
2026-05-07 18:57 49.92977 6.41113 31592 ft 428 kts 256°
2026-05-07 18:57 49.92218 6.36641 31953 ft 429 kts 256°
2026-05-07 18:58 49.91459 6.32166 32470 ft 426 kts 256°
2026-05-07 18:58 49.90707 6.27735 32983 ft 424 kts 256°
2026-05-07 18:58 49.89957 6.23315 33472 ft 423 kts 256°
2026-05-07 18:58 49.89210 6.18913 33948 ft 421 kts 256°
2026-05-07 18:59 49.88469 6.14572 34361 ft 420 kts 256°
2026-05-07 18:59 49.87706 6.10139 34740 ft 420 kts 255°
2026-05-07 18:59 49.86961 6.05817 34999 ft 421 kts 255°
2026-05-07 19:00 49.85468 5.97162 35065 ft 410 kts 255°
2026-05-07 19:00 49.83995 5.88656 35073 ft 408 kts 255°
2026-05-07 19:01 49.82520 5.80184 35075 ft 407 kts 255°
2026-05-07 19:01 49.81040 5.71733 35073 ft 407 kts 255°
2026-05-07 19:02 49.79548 5.63269 35072 ft 407 kts 255°
2026-05-07 19:02 49.78053 5.54819 35073 ft 407 kts 255°
2026-05-07 19:03 49.76555 5.46371 35071 ft 407 kts 255°
2026-05-07 19:03 49.75056 5.37947 35072 ft 406 kts 255°
2026-05-07 19:04 49.73545 5.29529 35073 ft 406 kts 255°
2026-05-07 19:04 49.72041 5.21165 35070 ft 406 kts 255°
2026-05-07 19:05 49.70513 5.12713 35069 ft 406 kts 255°
2026-05-07 19:05 49.69003 5.04371 35068 ft 406 kts 254°
2026-05-07 19:06 49.67474 4.95984 35065 ft 406 kts 254°
2026-05-07 19:06 49.65159 4.83422 35072 ft 406 kts 254°
2026-05-07 19:07 49.63617 4.75074 35063 ft 405 kts 254°
2026-05-07 19:07 49.62056 4.66690 35065 ft 405 kts 254°
2026-05-07 19:08 49.60497 4.58352 35061 ft 405 kts 254°
2026-05-07 19:08 49.58932 4.49986 35062 ft 405 kts 254°
2026-05-07 19:09 49.57369 4.41652 35065 ft 405 kts 253°
2026-05-07 19:09 49.55799 4.33309 35065 ft 405 kts 253°